User: anonymous   Login
Location: Altleiningen
(49.5078°N, 8.0741°E)
Time: 12:34:15
(UTC+00:00)
Language:

SL-16 R/B - Orbit

View from above orbital plane
View from above orbital plane
View from above satellite
View from above satellite

Ground track
Ground track

The orbit data is extracted from the following two-line orbital elements,

1 31793U 07029B   21131.85195337 -.00000323  00000-0 -14362-3 0  9999
2 31793  70.9758 276.5078 0002238 263.3190 205.8816 14.14446800716078
Epoch (UTC): 11 May 2021 20:26:48
Eccentricity: 0.0002238
inclination: 70.9758°
perigee height: 842 km
apogee height: 846 km
right ascension of ascending node: 276.5078°
argument of perigee: 263.3190°
revolutions per day: 14.14446800
mean anomaly at epoch: 205.8816°
orbit number at epoch: 71607

The dashed part of the orbit path shows where the satellite is in the earth's shadow,  

DLR